QPF
0.10 0.11 0.08 0.05 0.04 0.03 0.02 0.01 0.01 0.01 0.00 0.00 0.00 0.00 0.00 0.00 0.00 0.00 0.00 0.00 0.00 0.00 0.00 0.00 0.00 0.00 0.00 0.00 0.00 0.00 0.00 0.00 0.00 0.00 0.00 0.00 0.00 0.00 0.00 0.00 0.00 0.00 0.00
0.07 0.08 0.07 0.06 0.05 0.04 0.02 0.01 0.01 0.00 0.00 0.00 0.00 0.00 0.00 0.00 0.00 0.00 0.00 0.00 0.00 0.00 0.00 0.00 0.00 0.00 0.00 0.00 0.00 0.00 0.00 0.00 0.00 0.00 0.00 0.00 0.00 0.00 0.00 0.00 0.00 0.00 0.00
0.06 0.05 0.05 0.05 0.04 0.03 0.02 0.01 0.01 0.01 0.01 0.01 0.01 0.01 0.01 0.01 0.01 0.02 0.02 0.02 0.02 0.02 0.01 0.01 0.00 0.00 0.00 0.00 0.00 0.00 0.00 0.00 0.00 0.00 0.00 0.00 0.00 0.00 0.00 0.00 0.00 0.00 0.00
0.06 0.04 0.05 0.04 0.03 0.03 0.02 0.02 0.02 0.01 0.01 0.02 0.03 0.03 0.02 0.02 0.03 0.04 0.04 0.03 0.03 0.02 0.02 0.01 0.01 0.00 0.00 0.00 0.00 0.00 0.00 0.00 0.00 0.00 0.00 0.00 0.00 0.00 0.00 0.00 0.00 0.00 0.00
0.05 0.05 0.05 0.06 0.04 0.04 0.04 0.03 0.03 0.03 0.03 0.05 0.05 0.04 0.04 0.05 0.05 0.05 0.05 0.03 0.03 0.03 0.02 0.02 0.02 0.02 0.02 0.01 0.01 0.01 0.01 0.01 0.00 0.00 0.00 0.00 0.00 0.00 0.00 0.00 0.00 0.00 0.00
0.07 0.07 0.07 0.09 0.08 0.07 0.06 0.05 0.06 0.06 0.08 0.08 0.07 0.07 0.07 0.07 0.08 0.08 0.06 0.05 0.04 0.03 0.03 0.03 0.03 0.03 0.03 0.03 0.02 0.02 0.02 0.01 0.01 0.01 0.01 0.00 0.00 0.00 0.00 0.00 0.00 0.00 0.00
0.09 0.10 0.11 0.12 0.12 0.10 0.10 0.08 0.07 0.07 0.08 0.08 0.09 0.09 0.09 0.10 0.11 0.09 0.08 0.07 0.07 0.06 0.06 0.05 0.05 0.05 0.04 0.04 0.03 0.03 0.03 0.02 0.02 0.02 0.01 0.01 0.01 0.01 0.01 0.00 0.00 0.00 0.00
0.13 0.14 0.13 0.14 0.13 0.11 0.11 0.09 0.09 0.09 0.09 0.11 0.13 0.13 0.12 0.12 0.12 0.10 0.09 0.08 0.08 0.07 0.07 0.07 0.06 0.05 0.05 0.04 0.03 0.03 0.03 0.03 0.03 0.03 0.02 0.01 0.01 0.01 0.01 0.01 0.00 0.00 0.00
0.12 0.12 0.11 0.10 0.11 0.10 0.08 0.08 0.08 0.09 0.11 0.14 0.14 0.14 0.13 0.11 0.10 0.10 0.10 0.09 0.08 0.08 0.08 0.07 0.06 0.06 0.05 0.04 0.02 0.02 0.01 0.01 0.02 0.02 0.01 0.01 0.01 0.01 0.01 0.01 0.01 0.01 0.01
0.13 0.11 0.07 0.06 0.07 0.07 0.06 0.07 0.07 0.06 0.06 0.06 0.05 0.07 0.08 0.10 0.11 0.12 0.12 0.09 0.08 0.09 0.08 0.07 0.06 0.06 0.05 0.04 0.02 0.01 0.01 0.01 0.01 0.01 0.01 0.01 0.01 0.01 0.01 0.02 0.02 0.02 0.01
0.06 0.04 0.03 0.03 0.04 0.05 0.06 0.05 0.04 0.03 0.03 0.03 0.04 0.04 0.04 0.03 0.04 0.04 0.05 0.05 0.05 0.06 0.07 0.07 0.06 0.06 0.05 0.04 0.03 0.02 0.01 0.01 0.01 0.01 0.01 0.01 0.01 0.01 0.01 0.01 0.01 0.01 0.01
0.02 0.02 0.02 0.02 0.02 0.01 0.02 0.02 0.02 0.02 0.02 0.02 0.02 0.02 0.02 0.02 0.02 0.02 0.01 0.01 0.01 0.02 0.02 0.03 0.03 0.03 0.03 0.03 0.02 0.02 0.01 0.01 0.01 0.01 0.01 0.01 0.01 0.01 0.00 0.00 0.00 0.01 0.01
0.01 0.01 0.01 0.01 0.01 0.00 0.00 0.01 0.01 0.01 0.01 0.01 0.02 0.02 0.02 0.01 0.01 0.01 0.00 0.00 0.00 0.00 0.00 0.00 0.01 0.01 0.01 0.01 0.00 0.00 0.00 0.00 0.00 0.01 0.01 0.00 0.00 0.00 0.00 0.00 0.00 0.00 0.00
0.02 0.01 0.01 0.01 0.00 0.00 0.00 0.00 0.00 0.00 0.00 0.00 0.00 0.00 0.00 0.00 0.00 0.00 0.00 0.00 0.00 0.00 0.00 0.00 0.00 0.00 0.00 0.00 0.00 0.00 0.00 0.00 0.00 0.00 0.00 0.00 0.00 0.00 0.00 0.00 0.00 0.00 0.00
0.00 0.00 0.00 0.00 0.00 0.00 0.00 0.00 0.00 0.00 0.00 0.00 0.00 0.00 0.00 0.00 0.00 0.00 0.00 0.00 0.00 0.00 0.00 0.00 0.00 0.00 0.00 0.00 0.00 0.00 0.00 0.00 0.00 0.00 0.00 0.00 0.00 0.00 0.00 0.00 0.00 0.00 0.00
0.00 0.00 0.00 0.00 0.00 0.00 0.00 0.00 0.00 0.00 0.00 0.00 0.00 0.00 0.00 0.00 0.00 0.00 0.00 0.00 0.00 0.00 0.00 0.00 0.00 0.00 0.00 0.00 0.00 0.00 0.00 0.00 0.00 0.00 0.00 0.00 0.00 0.00 0.00 0.00 0.00 0.00 0.00
0.00 0.00 0.00 0.00 0.00 0.00 0.00 0.00 0.00 0.00 0.00 0.00 0.00 0.00 0.00 0.00 0.00 0.00 0.00 0.00 0.00 0.00 0.00 0.00 0.00 0.00 0.00 0.00 0.00 0.00 0.00 0.00 0.00 0.00 0.00 0.00 0.00 0.00 0.00 0.00 0.00 0.00 0.00
0.00 0.00 0.00 0.00 0.00 0.00 0.00 0.00 0.00 0.00 0.00 0.00 0.00 0.00 0.00 0.00 0.00 0.00 0.00 0.00 0.00 0.00 0.00 0.00 0.00 0.00 0.00 0.00 0.00 0.00 0.00 0.00 0.00 0.00 0.00 0.00 0.01 0.01 0.01 0.01 0.01 0.01 0.01
0.00 0.00 0.00 0.00 0.00 0.00 0.00 0.00 0.00 0.00 0.00 0.00 0.00 0.00 0.00 0.00 0.00 0.00 0.00 0.00 0.00 0.00 0.00 0.00 0.00 0.00 0.00 0.00 0.00 0.00 0.00 0.00 0.00 0.00 0.01 0.01 0.01 0.01 0.02 0.02 0.02 0.02 0.02
0.00 0.00 0.00 0.00 0.00 0.00 0.00 0.00 0.00 0.00 0.00 0.00 0.00 0.00 0.00 0.00 0.00 0.00 0.00 0.00 0.00 0.00 0.00 0.00 0.01 0.00 0.00 0.00 0.01 0.00 0.00 0.00 0.00 0.00 0.01 0.01 0.01 0.02 0.02 0.03 0.03 0.03 0.03
0.00 0.00 0.00 0.00 0.00 0.00 0.00 0.00 0.00 0.00 0.00 0.00 0.00 0.00 0.00 0.00 0.00 0.00 0.00 0.00 0.00 0.00 0.00 0.01 0.01 0.01 0.00 0.00 0.00 0.01 0.00 0.00 0.00 0.01 0.01 0.01 0.01 0.02 0.02 0.03 0.04 0.04 0.04
0.00 0.00 0.00 0.00 0.00 0.00 0.00 0.00 0.00 0.00 0.00 0.00 0.00 0.00 0.00 0.00 0.00 0.00 0.00 0.00 0.00 0.01 0.01 0.01 0.01 0.01 0.00 0.00 0.00 0.01 0.01 0.01 0.01 0.01 0.01 0.01 0.01 0.02 0.03 0.04 0.04 0.04 0.05
0.00 0.00 0.00 0.00 0.00 0.00 0.00 0.00 0.00 0.00 0.00 0.00 0.00 0.00 0.00 0.00 0.00 0.00 0.00 0.00 0.00 0.01 0.01 0.01 0.01 0.01 0.00 0.00 0.00 0.01 0.01 0.01 0.01 0.01 0.02 0.01 0.01 0.02 0.02 0.03 0.04 0.05 0.05
0.00 0.00 0.00 0.00 0.00 0.00 0.00 0.00 0.00 0.00 0.00 0.00 0.00 0.00 0.00 0.00 0.00 0.00 0.00 0.00 0.00 0.01 0.01 0.01 0.00 0.00 0.00 0.00 0.00 0.00 0.01 0.01 0.01 0.01 0.01 0.02 0.02 0.02 0.03 0.04 0.06 0.07 0.07
0.00 0.00 0.00 0.00 0.00 0.00 0.00 0.00 0.00 0.00 0.00 0.00 0.00 0.00 0.00 0.00 0.00 0.00 0.00 0.00 0.00 0.01 0.00 0.00 0.00 0.00 0.00 0.00 0.00 0.00 0.01 0.01 0.01 0.01 0.01 0.01 0.02 0.03 0.03 0.04 0.05 0.06 0.06
0.00 0.00 0.00 0.00 0.00 0.00 0.00 0.00 0.00 0.00 0.00 0.00 0.00 0.00 0.00 0.00 0.00 0.00 0.00 0.00 0.00 0.00 0.00 0.00 0.00 0.00 0.00 0.01 0.01 0.01 0.01 0.01 0.01 0.02 0.01 0.01 0.02 0.03 0.03 0.03 0.04 0.04 0.05
MSLP
1012.74 1013.38 1014.04 1014.65 1015.16 1015.58 1015.90 1016.15 1016.38 1016.62 1016.90 1017.21 1017.56 1017.92 1018.25 1018.53 1018.75 1018.91 1019.03 1019.12 1019.22 1019.34 1019.50 1019.68 1019.88 1020.08 1020.25 1020.39 1020.47 1020.51 1020.51 1020.48 1020.44 1020.38 1020.33 1020.26 1020.18 1020.08 1019.96 1019.83 1019.70 1019.58 1019.48
1012.79 1013.35 1013.92 1014.46 1014.92 1015.29 1015.58 1015.82 1016.03 1016.25 1016.49 1016.78 1017.09 1017.41 1017.71 1017.97 1018.19 1018.35 1018.48 1018.60 1018.71 1018.84 1019.00 1019.18 1019.37 1019.56 1019.72 1019.85 1019.94 1019.99 1020.01 1020.01 1020.01 1019.99 1019.97 1019.93 1019.87 1019.78 1019.66 1019.51 1019.34 1019.17 1019.02
1012.80 1013.31 1013.82 1014.30 1014.72 1015.05 1015.31 1015.52 1015.70 1015.89 1016.10 1016.34 1016.60 1016.87 1017.13 1017.35 1017.54 1017.70 1017.84 1017.96 1018.09 1018.25 1018.42 1018.61 1018.81 1019.00 1019.16 1019.29 1019.38 1019.45 1019.48 1019.50 1019.52 1019.53 1019.54 1019.53 1019.49 1019.40 1019.28 1019.12 1018.93 1018.72 1018.53
1012.77 1013.25 1013.73 1014.18 1014.56 1014.86 1015.09 1015.27 1015.43 1015.58 1015.76 1015.95 1016.15 1016.36 1016.57 1016.75 1016.90 1017.04 1017.17 1017.31 1017.46 1017.63 1017.84 1018.05 1018.27 1018.47 1018.65 1018.78 1018.87 1018.93 1018.97 1019.00 1019.02 1019.04 1019.05 1019.05 1019.02 1018.95 1018.84 1018.67 1018.47 1018.24 1018.01
1012.69 1013.17 1013.64 1014.06 1014.42 1014.70 1014.91 1015.08 1015.22 1015.35 1015.49 1015.64 1015.80 1015.96 1016.10 1016.24 1016.36 1016.47 1016.59 1016.73 1016.90 1017.11 1017.34 1017.58 1017.83 1018.05 1018.23 1018.37 1018.46 1018.50 1018.52 1018.53 1018.53 1018.53 1018.54 1018.53 1018.51 1018.45 1018.34 1018.18 1017.99 1017.75 1017.51
1012.61 1013.10 1013.57 1013.98 1014.32 1014.59 1014.79 1014.95 1015.09 1015.21 1015.33 1015.46 1015.59 1015.71 1015.82 1015.91 1016.00 1016.09 1016.20 1016.34 1016.53 1016.75 1017.01 1017.28 1017.55 1017.79 1017.98 1018.11 1018.18 1018.19 1018.17 1018.13 1018.09 1018.05 1018.03 1018.00 1017.97 1017.92 1017.82 1017.69 1017.50 1017.28 1017.03
1012.56 1013.07 1013.53 1013.94 1014.27 1014.54 1014.75 1014.92 1015.06 1015.20 1015.33 1015.46 1015.58 1015.68 1015.77 1015.83 1015.89 1015.97 1016.06 1016.20 1016.39 1016.63 1016.90 1017.19 1017.47 1017.72 1017.90 1018.01 1018.05 1018.01 1017.94 1017.84 1017.73 1017.64 1017.57 1017.51 1017.46 1017.40 1017.32 1017.20 1017.04 1016.83 1016.59
1012.62 1013.13 1013.59 1013.99 1014.32 1014.59 1014.82 1015.01 1015.19 1015.36 1015.52 1015.67 1015.80 1015.90 1015.98 1016.04 1016.08 1016.13 1016.21 1016.34 1016.53 1016.76 1017.03 1017.32 1017.60 1017.83 1017.99 1018.06 1018.05 1017.96 1017.82 1017.65 1017.47 1017.31 1017.18 1017.08 1017.00 1016.94 1016.86 1016.76 1016.62 1016.43 1016.20
1012.85 1013.36 1013.81 1014.19 1014.52 1014.80 1015.04 1015.27 1015.48 1015.70 1015.90 1016.09 1016.25 1016.37 1016.46 1016.51 1016.54 1016.58 1016.64 1016.74 1016.90 1017.11 1017.36 1017.62 1017.86 1018.06 1018.18 1018.21 1018.14 1017.99 1017.78 1017.53 1017.29 1017.06 1016.88 1016.73 1016.63 1016.55 1016.47 1016.38 1016.25 1016.08 1015.85
1013.29 1013.77 1014.20 1014.57 1014.89 1015.18 1015.44 1015.70 1015.96 1016.22 1016.47 1016.70 1016.89 1017.04 1017.14 1017.19 1017.21 1017.23 1017.26 1017.32 1017.44 1017.60 1017.79 1018.00 1018.19 1018.33 1018.39 1018.36 1018.24 1018.03 1017.76 1017.46 1017.16 1016.88 1016.65 1016.47 1016.34 1016.24 1016.15 1016.05 1015.93 1015.75 1015.52
1013.92 1014.38 1014.78 1015.13 1015.45 1015.73 1016.01 1016.29 1016.59 1016.89 1017.18 1017.45 1017.67 1017.84 1017.95 1018.00 1018.00 1017.99 1017.98 1017.99 1018.04 1018.13 1018.25 1018.37 1018.48 1018.55 1018.54 1018.45 1018.27 1018.01 1017.70 1017.36 1017.03 1016.73 1016.47 1016.26 1016.11 1015.99 1015.89 1015.77 1015.63 1015.44 1015.18
1014.70 1015.13 1015.50 1015.83 1016.13 1016.41 1016.70 1017.00 1017.32 1017.65 1017.97 1018.26 1018.50 1018.68 1018.79 1018.83 1018.81 1018.76 1018.69 1018.64 1018.61 1018.61 1018.63 1018.65 1018.67 1018.64 1018.56 1018.41 1018.18 1017.89 1017.56 1017.21 1016.87 1016.56 1016.30 1016.09 1015.92 1015.78 1015.65 1015.51 1015.33 1015.11 1014.82
1015.54 1015.94 1016.28 1016.58 1016.86 1017.14 1017.43 1017.74 1018.06 1018.40 1018.73 1019.03 1019.28 1019.46 1019.56 1019.58 1019.53 1019.44 1019.31 1019.18 1019.06 1018.96 1018.87 1018.79 1018.70 1018.58 1018.42 1018.20 1017.94 1017.63 1017.30 1016.97 1016.65 1016.36 1016.11 1015.90 1015.73 1015.58 1015.42 1015.25 1015.03 1014.76 1014.42
1016.34 1016.69 1017.01 1017.29 1017.55 1017.82 1018.10 1018.41 1018.74 1019.08 1019.41 1019.70 1019.94 1020.11 1020.19 1020.19 1020.11 1019.97 1019.79 1019.58 1019.37 1019.17 1018.97 1018.78 1018.58 1018.37 1018.13 1017.87 1017.58 1017.27 1016.96 1016.65 1016.37 1016.12 1015.90 1015.72 1015.55 1015.38 1015.19 1014.97 1014.70 1014.38 1013.99
1016.99 1017.30 1017.58 1017.85 1018.10 1018.36 1018.65 1018.95 1019.27 1019.60 1019.92 1020.21 1020.43 1020.58 1020.65 1020.62 1020.52 1020.34 1020.10 1019.83 1019.54 1019.25 1018.95 1018.65 1018.36 1018.07 1017.77 1017.46 1017.16 1016.86 1016.58 1016.32 1016.08 1015.88 1015.70 1015.53 1015.37 1015.19 1014.97 1014.70 1014.38 1013.99 1013.55
1017.41 1017.69 1017.95 1018.20 1018.45 1018.72 1019.00 1019.31 1019.63 1019.96 1020.27 1020.54 1020.76 1020.89 1020.95 1020.91 1020.78 1020.57 1020.30 1019.98 1019.63 1019.26 1018.88 1018.50 1018.13 1017.77 1017.42 1017.09 1016.78 1016.49 1016.24 1016.03 1015.84 1015.68 1015.54 1015.39 1015.23 1015.02 1014.77 1014.45 1014.07 1013.63 1013.13
1017.61 1017.86 1018.10 1018.35 1018.61 1018.89 1019.19 1019.52 1019.85 1020.18 1020.48 1020.75 1020.96 1021.09 1021.14 1021.09 1020.96 1020.74 1020.45 1020.09 1019.70 1019.28 1018.84 1018.41 1017.98 1017.57 1017.18 1016.83 1016.52 1016.26 1016.04 1015.86 1015.71 1015.59 1015.46 1015.33 1015.15 1014.92 1014.62 1014.25 1013.81 1013.31 1012.76
1017.66 1017.88 1018.11 1018.37 1018.65 1018.95 1019.28 1019.63 1019.98 1020.32 1020.64 1020.91 1021.11 1021.25 1021.29 1021.25 1021.11 1020.89 1020.60 1020.24 1019.82 1019.37 1018.90 1018.43 1017.97 1017.53 1017.13 1016.77 1016.46 1016.21 1016.01 1015.85 1015.73 1015.62 1015.50 1015.35 1015.15 1014.88 1014.53 1014.11 1013.61 1013.05 1012.44
1017.64 1017.84 1018.08 1018.35 1018.66 1019.00 1019.36 1019.74 1020.12 1020.48 1020.80 1021.08 1021.29 1021.42 1021.47 1021.44 1021.31 1021.09 1020.80 1020.44 1020.02 1019.57 1019.09 1018.60 1018.12 1017.67 1017.26 1016.90 1016.59 1016.35 1016.16 1016.01 1015.89 1015.77 1015.63 1015.45 1015.21 1014.89 1014.48 1014.00 1013.44 1012.82 1012.17
1017.69 1017.88 1018.12 1018.41 1018.75 1019.13 1019.53 1019.93 1020.33 1020.71 1021.04 1021.32 1021.53 1021.67 1021.71 1021.68 1021.55 1021.34 1021.06 1020.71 1020.30 1019.85 1019.37 1018.89 1018.41 1017.96 1017.55 1017.18 1016.88 1016.63 1016.43 1016.27 1016.13 1015.98 1015.80 1015.57 1015.28 1014.90 1014.43 1013.88 1013.27 1012.60 1011.89
1017.90 1018.08 1018.34 1018.65 1019.01 1019.41 1019.84 1020.27 1020.68 1021.05 1021.38 1021.65 1021.85 1021.97 1022.01 1021.96 1021.83 1021.62 1021.34 1021.00 1020.60 1020.16 1019.70 1019.22 1018.75 1018.31 1017.90 1017.54 1017.22 1016.96 1016.74 1016.55 1016.37 1016.17 1015.94 1015.65 1015.29 1014.84 1014.31 1013.71 1013.03 1012.32 1011.57
1018.33 1018.52 1018.77 1019.10 1019.47 1019.89 1020.32 1020.74 1021.14 1021.50 1021.81 1022.05 1022.22 1022.31 1022.31 1022.25 1022.10 1021.88 1021.60 1021.26 1020.87 1020.44 1019.99 1019.53 1019.07 1018.63 1018.22 1017.85 1017.52 1017.24 1016.98 1016.75 1016.51 1016.26 1015.96 1015.60 1015.17 1014.67 1014.08 1013.41 1012.69 1011.93 1011.15
1019.00 1019.18 1019.44 1019.76 1020.12 1020.52 1020.93 1021.33 1021.69 1022.01 1022.27 1022.46 1022.58 1022.62 1022.58 1022.48 1022.30 1022.06 1021.77 1021.42 1021.03 1020.61 1020.17 1019.72 1019.26 1018.83 1018.41 1018.03 1017.68 1017.36 1017.06 1016.77 1016.48 1016.16 1015.80 1015.37 1014.88 1014.32 1013.68 1012.97 1012.22 1011.43 1010.62
1019.85 1020.02 1020.26 1020.56 1020.90 1021.26 1021.62 1021.96 1022.26 1022.52 1022.71 1022.83 1022.88 1022.85 1022.77 1022.61 1022.40 1022.14 1021.82 1021.47 1021.08 1020.65 1020.21 1019.77 1019.31 1018.87 1018.44 1018.04 1017.66 1017.30 1016.95 1016.60 1016.25 1015.86 1015.44 1014.96 1014.42 1013.81 1013.13 1012.40 1011.62 1010.81 1009.98
1020.80 1020.96 1021.17 1021.43 1021.72 1022.01 1022.30 1022.57 1022.79 1022.96 1023.07 1023.11 1023.09 1023.00 1022.85 1022.65 1022.41 1022.11 1021.78 1021.41 1021.01 1020.59 1020.14 1019.69 1019.23 1018.77 1018.33 1017.89 1017.47 1017.06 1016.66 1016.26 1015.85 1015.41 1014.93 1014.40 1013.82 1013.18 1012.48 1011.74 1010.95 1010.14 1009.31
1021.76 1021.90 1022.08 1022.28 1022.51 1022.73 1022.93 1023.11 1023.24 1023.32 1023.34 1023.31 1023.21 1023.07 1022.87 1022.63 1022.35 1022.03 1021.69 1021.30 1020.89 1020.46 1020.01 1019.54 1019.07 1018.59 1018.12 1017.65 1017.19 1016.73 1016.28 1015.82 1015.35 1014.86 1014.34 1013.78 1013.17 1012.52 1011.82 1011.07 1010.29 1009.49 1008.66
Thickness
5716 5714 5713 5712 5711 5710 5709 5708 5708 5707 5706 5705 5704 5703 5702 5700 5699 5697 5696 5695 5693 5692 5691 5690 5689 5688 5687 5686 5685 5684 5682 5681 5679 5681 5681 5683 5683 5684 5684 5683 5683 5682 5682
5716 5714 5712 5711 5710 5709 5708 5707 5707 5706 5705 5704 5703 5702 5701 5699 5698 5696 5694 5693 5691 5689 5688 5687 5686 5685 5683 5682 5680 5679 5678 5677 5676 5676 5677 5677 5678 5678 5678 5678 5678 5678 5678
5716 5713 5711 5709 5708 5707 5706 5706 5705 5704 5703 5702 5701 5700 5698 5697 5695 5694 5692 5691 5689 5687 5685 5684 5682 5680 5679 5677 5676 5675 5674 5673 5671 5670 5671 5671 5672 5672 5671 5671 5672 5672 5673
5716 5713 5710 5709 5707 5706 5704 5704 5703 5702 5701 5700 5698 5697 5695 5694 5692 5690 5688 5687 5685 5683 5681 5680 5679 5676 5674 5673 5672 5671 5669 5667 5665 5664 5665 5665 5665 5665 5663 5663 5665 5666 5667
5716 5712 5709 5707 5705 5704 5702 5701 5700 5699 5698 5696 5695 5693 5691 5689 5688 5686 5684 5682 5680 5678 5676 5674 5673 5671 5670 5668 5666 5665 5662 5660 5659 5657 5658 5658 5659 5656 5656 5657 5658 5660 5662
5713 5710 5707 5704 5702 5700 5698 5696 5694 5693 5692 5690 5689 5687 5685 5683 5682 5681 5679 5677 5674 5671 5669 5667 5666 5664 5662 5661 5659 5658 5656 5654 5652 5650 5651 5651 5652 5651 5650 5649 5649 5649 5653
5709 5706 5703 5700 5697 5694 5692 5690 5688 5686 5684 5682 5680 5678 5675 5674 5673 5672 5669 5667 5664 5661 5659 5657 5656 5654 5652 5651 5649 5648 5646 5644 5643 5641 5641 5642 5642 5643 5640 5640 5639 5639 5643
5703 5699 5697 5695 5691 5688 5685 5683 5680 5678 5675 5673 5670 5668 5666 5663 5661 5661 5658 5655 5651 5649 5646 5645 5642 5640 5638 5637 5637 5636 5634 5632 5631 5630 5630 5630 5630 5629 5628 5628 5628 5630 5634
5694 5691 5688 5686 5683 5680 5676 5674 5671 5668 5665 5662 5659 5656 5654 5651 5649 5648 5646 5642 5637 5634 5632 5630 5629 5626 5624 5623 5623 5621 5621 5619 5619 5618 5617 5617 5617 5616 5615 5614 5616 5616 5621
5684 5682 5679 5676 5673 5669 5665 5662 5660 5657 5653 5649 5645 5642 5639 5636 5634 5633 5631 5628 5623 5621 5618 5616 5614 5612 5610 5609 5608 5607 5606 5606 5605 5606 5605 5605 5604 5604 5602 5601 5601 5602 5606
5675 5672 5668 5665 5661 5658 5654 5650 5647 5643 5639 5634 5630 5626 5623 5621 5619 5617 5615 5612 5609 5606 5604 5602 5600 5597 5596 5595 5594 5592 5591 5591 5591 5591 5591 5591 5591 5590 5590 5588 5587 5587 5589
5663 5659 5655 5652 5650 5646 5641 5637 5633 5629 5624 5619 5615 5611 5608 5605 5603 5601 5599 5597 5594 5591 5588 5586 5584 5583 5582 5581 5579 5578 5577 5577 5576 5577 5577 5577 5576 5576 5576 5574 5573 5572 5572
5649 5644 5641 5638 5634 5631 5627 5623 5619 5614 5609 5604 5600 5596 5592 5590 5587 5585 5583 5581 5579 5576 5573 5572 5570 5568 5567 5566 5564 5563 5562 5561 5560 5560 5560 5560 5559 5559 5559 5558 5559 5558 5559
5635 5630 5626 5623 5619 5616 5612 5608 5605 5600 5595 5591 5587 5582 5578 5575 5573 5570 5568 5566 5563 5560 5558 5556 5554 5552 5550 5549 5547 5546 5544 5543 5542 5541 5541 5541 5541 5540 5540 5540 5541 5542 5543
5622 5617 5613 5609 5605 5601 5596 5592 5589 5584 5581 5576 5571 5567 5564 5560 5556 5553 5550 5549 5546 5543 5541 5539 5537 5535 5534 5532 5530 5528 5526 5525 5524 5523 5523 5523 5523 5524 5523 5523 5523 5524 5525
5609 5604 5600 5596 5592 5588 5583 5577 5572 5568 5564 5560 5556 5551 5547 5543 5540 5537 5534 5531 5528 5525 5523 5521 5518 5516 5514 5513 5512 5510 5509 5507 5506 5506 5506 5506 5506 5506 5507 5507 5507 5507 5509
5596 5591 5587 5583 5579 5574 5569 5564 5558 5552 5548 5543 5538 5534 5530 5526 5522 5519 5516 5513 5510 5507 5504 5501 5499 5497 5496 5494 5494 5493 5492 5491 5490 5490 5490 5490 5490 5491 5491 5492 5492 5493 5495
5583 5579 5574 5569 5564 5559 5554 5548 5543 5538 5532 5526 5520 5516 5512 5508 5504 5501 5497 5495 5492 5489 5485 5482 5480 5479 5478 5477 5477 5476 5476 5475 5475 5475 5475 5475 5475 5476 5478 5479 5480 5480 5482
5570 5565 5559 5554 5549 5543 5538 5532 5527 5521 5515 5509 5504 5499 5494 5490 5487 5483 5480 5477 5473 5470 5467 5465 5463 5462 5461 5461 5460 5460 5460 5461 5461 5461 5462 5463 5463 5464 5466 5468 5470 5471 5470
5556 5552 5546 5540 5534 5528 5522 5516 5510 5504 5498 5493 5487 5482 5478 5474 5470 5466 5463 5459 5456 5454 5451 5450 5448 5447 5447 5447 5447 5447 5448 5449 5450 5451 5452 5453 5454 5454 5456 5458 5460 5462 5465
5542 5537 5532 5525 5518 5512 5506 5500 5494 5488 5483 5477 5471 5466 5461 5458 5454 5450 5447 5444 5441 5439 5437 5436 5436 5436 5436 5436 5437 5437 5438 5439 5440 5441 5442 5443 5445 5446 5448 5450 5453 5455 5458
5527 5521 5515 5509 5503 5497 5491 5485 5479 5473 5468 5462 5457 5452 5447 5443 5439 5436 5433 5430 5428 5427 5426 5425 5425 5426 5426 5427 5428 5429 5430 5431 5432 5433 5434 5435 5437 5439 5442 5445 5448 5451 5454
5513 5506 5500 5494 5488 5482 5476 5470 5464 5459 5453 5448 5443 5438 5434 5430 5426 5423 5421 5419 5418 5417 5417 5416 5417 5418 5418 5419 5420 5421 5422 5424 5424 5425 5427 5430 5433 5436 5438 5442 5445 5448 5452
5498 5492 5486 5479 5473 5468 5462 5456 5451 5446 5441 5435 5430 5426 5422 5418 5415 5412 5410 5409 5408 5409 5409 5409 5410 5410 5411 5413 5414 5416 5417 5417 5418 5421 5423 5425 5429 5433 5436 5440 5444 5447 5450
5484 5478 5472 5466 5460 5454 5449 5443 5438 5434 5429 5424 5419 5415 5411 5408 5405 5403 5401 5401 5401 5401 5402 5403 5404 5405 5406 5408 5410 5412 5413 5415 5416 5418 5420 5423 5427 5431 5434 5438 5442 5445 5449
5470 5465 5458 5453 5447 5442 5437 5432 5427 5422 5418 5413 5409 5405 5402 5399 5396 5395 5394 5394 5394 5395 5396 5397 5398 5400 5402 5404 5407 5408 5411 5413 5415 5417 5419 5422 5426 5430 5433 5437 5440 5444 5448